| time (UTC) | temp C | wind direction | speed KPH | gust KPH | rain 1hr cm | rain 24hr cm | rain mn cm | humidity % | barometer mb |
| 20260906154404 | 18 | 0 | 0.0 | 6.4 | 0.00 | 0.00 | 0.00 | 55 | 952.0 |
| 20260906153936 | 18 | 0 | 3.2 | 6.4 | 0.00 | 0.00 | 0.00 | 54 | 951.0 |
| 20260906153433 | 18 | 0 | 3.2 | 6.4 | 0.00 | 0.00 | 0.00 | 54 | 951.0 |
| 20260906152906 | 18 | 0 | 0.0 | 0.0 | 0.00 | 0.00 | 0.00 | 54 | 951.0 |
| 20260906152414 | 18 | 22 | 0.0 | 4.8 | 0.00 | 0.00 | 0.00 | 54 | 951.0 |
| 20260906151904 | 18 | 22 | 0.0 | 4.8 | 0.00 | 0.00 | 0.00 | 54 | 951.0 |
| 20260906151449 | 18 | 22 | 0.0 | 4.8 | 0.00 | 0.00 | 0.00 | 54 | 951.0 |
| 20260906150906 | 18 | 45 | 0.0 | 3.2 | 0.00 | 0.00 | 0.00 | 54 | 951.0 |
| 20260906150404 | 18 | 22 | 0.0 | 3.2 | 0.00 | 0.00 | 0.00 | 55 | 951.0 |
| 20260906145929 | 18 | 22 | 0.0 | 3.2 | 0.00 | 0.00 | 0.00 | 55 | 951.0 |
| 20260906145405 | 18 | 22 | 0.0 | 3.2 | 0.00 | 0.00 | 0.00 | 55 | 951.0 |
| 20260906145001 | 18 | 22 | 0.0 | 3.2 | 0.00 | 0.00 | 0.00 | 55 | 951.0 |
| 20260906144405 | 18 | 22 | 0.0 | 12.9 | 0.00 | 0.00 | 0.00 | 55 | 951.0 |
| 20260906143906 | 18 | 22 | 3.2 | 12.9 | 0.00 | 0.00 | 0.00 | 55 | 951.0 |
| 20260906143405 | 18 | 22 | 0.0 | 12.9 | 0.00 | 0.00 | 0.00 | 55 | 951.0 |
| 20260906142905 | 18 | 22 | 4.8 | 8.0 | 0.00 | 0.00 | 0.00 | 55 | 951.0 |
| 20260906142510 | 18 | 0 | 6.4 | 8.0 | 0.00 | 0.00 | 0.00 | 55 | 951.0 |
| 20260906141904 | 18 | 22 | 0.0 | 3.2 | 0.00 | 0.00 | 0.00 | 56 | 950.0 |
| 20260906141414 | 18 | 22 | 0.0 | 3.2 | 0.00 | 0.00 | 0.00 | 56 | 950.0 |
| 20260906140905 | 18 | 22 | 0.0 | 6.4 | 0.00 | 0.00 | 0.00 | 55 | 950.0 |
| 20260906140404 | 18 | 22 | 0.0 | 6.4 | 0.00 | 0.00 | 0.00 | 56 | 950.0 |
| 20260906135905 | 18 | 22 | 3.2 | 6.4 | 0.00 | 0.00 | 0.00 | 56 | 950.0 |
| 20260906135405 | 19 | 315 | 3.2 | 6.4 | 0.00 | 0.00 | 0.00 | 56 | 950.0 |
| 20260906134928 | 19 | 338 | 6.4 | 9.7 | 0.00 | 0.00 | 0.00 | 56 | 951.0 |
| 20260906134404 | 19 | 315 | 3.2 | 9.7 | 0.00 | 0.00 | 0.00 | 55 | 951.0 |
| 20260906133912 | 19 | 0 | 0.0 | 9.7 | 0.00 | 0.00 | 0.00 | 55 | 950.0 |
| 20260906133404 | 20 | 0 | 3.2 | 8.0 | 0.00 | 0.00 | 0.00 | 54 | 950.0 |
| 20260906132905 | 20 | 338 | 1.6 | 11.3 | 0.00 | 0.00 | 0.00 | 54 | 950.0 |
| 20260906132404 | 20 | 0 | 0.0 | 11.3 | 0.00 | 0.00 | 0.00 | 53 | 950.0 |
| 20260906131905 | 20 | 338 | 3.2 | 11.3 | 0.00 | 0.00 | 0.00 | 53 | 950.0 |
| 20260906131422 | 20 | 22 | 0.0 | 6.4 | 0.00 | 0.00 | 0.00 | 53 | 950.0 |
| 20260906130905 | 20 | 0 | 3.2 | 4.8 | 0.00 | 0.00 | 0.00 | 53 | 950.0 |
| 20260906130415 | 20 | 22 | 1.6 | 4.8 | 0.00 | 0.00 | 0.00 | 53 | 950.0 |
| 20260906125905 | 20 | 338 | 0.0 | 3.2 | 0.00 | 0.00 | 0.00 | 54 | 950.0 |
| 20260906125405 | 20 | 338 | 0.0 | 3.2 | 0.00 | 0.00 | 0.00 | 55 | 950.0 |
| 20260906124904 | 20 | 338 | 1.6 | 3.2 | 0.00 | 0.00 | 0.00 | 56 | 950.0 |
| 20260906124404 | 20 | 338 | 3.2 | 3.2 | 0.00 | 0.00 | 0.00 | 57 | 950.0 |
| 20260906123904 | 20 | 338 | 0.0 | 1.6 | 0.00 | 0.00 | 0.00 | 57 | 950.0 |
| 20260906123426 | 20 | 338 | 0.0 | 4.8 | 0.00 | 0.00 | 0.00 | 57 | 950.0 |
| 20260906122905 | 20 | 22 | 0.0 | 4.8 | 0.00 | 0.00 | 0.00 | 57 | 950.0 |
| 20260906122409 | 20 | 22 | 1.6 | 8.0 | 0.00 | 0.00 | 0.00 | 56 | 950.0 |
| 20260906121905 | 21 | 338 | 0.0 | 8.0 | 0.00 | 0.00 | 0.00 | 56 | 950.0 |
| 20260906121405 | 20 | 22 | 0.0 | 8.0 | 0.00 | 0.00 | 0.00 | 56 | 950.0 |
| 20260906120904 | 20 | 45 | 3.2 | 9.7 | 0.00 | 0.00 | 0.00 | 58 | 950.0 |
| 20260906120405 | 20 | 22 | 4.8 | 9.7 | 0.00 | 0.00 | 0.00 | 59 | 950.0 |
| 20260906115921 | 20 | 0 | 3.2 | 9.7 | 0.00 | 0.00 | 0.00 | 61 | 950.0 |
| 20260906115405 | 20 | 22 | 3.2 | 4.8 | 0.00 | 0.00 | 0.00 | 62 | 950.0 |
| 20260906114914 | 19 | 0 | 3.2 | 4.8 | 0.00 | 0.00 | 0.00 | 62 | 950.0 |
| 20260906114405 | 19 | 338 | 0.0 | 0.0 | 0.00 | 0.00 | 0.00 | 62 | 950.0 |
| 20260906113905 | 19 | 338 | 0.0 | 0.0 | 0.00 | 0.00 | 0.00 | 62 | 950.0 |
| 20260906113432 | 19 | 338 | 0.0 | 0.0 | 0.00 | 0.00 | 0.00 | 61 | 950.0 |
| 20260906112904 | 20 | 338 | 0.0 | 8.0 | 0.00 | 0.00 | 0.00 | 59 | 950.0 |
| 20260906112424 | 21 | 338 | 0.0 | 8.0 | 0.00 | 0.00 | 0.00 | 59 | 950.0 |
| 20260906111904 | 22 | 338 | 8.0 | 8.0 | 0.00 | 0.00 | 0.00 | 60 | 950.0 |
| 20260906111409 | 22 | 22 | 3.2 | 6.4 | 0.00 | 0.00 | 0.00 | 62 | 950.0 |
| 20260906110904 | 22 | 0 | 0.0 | 3.2 | 0.00 | 0.00 | 0.00 | 66 | 950.0 |
| 20260906110405 | 22 | 0 | 0.0 | 0.0 | 0.00 | 0.00 | 0.00 | 67 | 950.0 |
| 20260906105905 | 21 | 315 | 0.0 | 0.0 | 0.00 | 0.00 | 0.00 | 70 | 950.0 |
| 20260906105404 | 21 | 315 | 0.0 | 0.0 | 0.00 | 0.00 | 0.00 | 71 | 950.0 |
| 20260906104920 | 21 | 338 | 0.0 | 0.0 | 0.00 | 0.00 | 0.00 | 72 | 950.0 |
| 20260906104405 | 20 | 338 | 0.0 | 0.0 | 0.00 | 0.00 | 0.00 | 73 | 950.0 |
| 20260906103912 | 20 | 338 | 0.0 | 0.0 | 0.00 | 0.00 | 0.00 | 74 | 950.0 |
| 20260906103404 | 19 | 338 | 0.0 | 0.0 | 0.00 | 0.00 | 0.00 | 77 | 950.0 |
| 20260906102905 | 18 | 338 | 0.0 | 0.0 | 0.00 | 0.00 | 0.00 | 77 | 950.0 |
| 20260906102430 | 18 | 338 | 0.0 | 0.0 | 0.00 | 0.00 | 0.00 | 78 | 950.0 |
| 20260906101905 | 17 | 338 | 0.0 | 0.0 | 0.00 | 0.00 | 0.00 | 78 | 950.0 |
| 20260906101424 | 16 | 338 | 0.0 | 0.0 | 0.00 | 0.00 | 0.00 | 78 | 950.0 |
| 20260906100905 | 16 | 338 | 0.0 | 0.0 | 0.00 | 0.00 | 0.00 | 78 | 950.0 |
| 20260906100406 | 16 | 0 | 0.0 | 0.0 | 0.00 | 0.00 | 0.00 | 78 | 950.0 |
| 20260906095904 | 16 | 0 | 0.0 | 0.0 | 0.00 | 0.00 | 0.00 | 78 | 950.0 |
| 20260906095404 | 15 | 0 | 0.0 | 0.0 | 0.00 | 0.00 | 0.00 | 78 | 950.0 |
| 20260906094905 | 15 | 0 | 0.0 | 0.0 | 0.00 | 0.00 | 0.00 | 77 | 950.0 |
| 20260906094405 | 15 | 0 | 0.0 | 0.0 | 0.00 | 0.00 | 0.00 | 77 | 950.0 |
| 20260906093916 | 15 | 0 | 0.0 | 0.0 | 0.00 | 0.00 | 0.00 | 76 | 950.0 |
| 20260906093403 | 14 | 0 | 0.0 | 0.0 | 0.00 | 0.00 | 0.00 | 76 | 950.0 |
| 20260906092905 | 14 | 0 | 0.0 | 0.0 | 0.00 | 0.00 | 0.00 | 75 | 950.0 |
| 20260906092403 | 15 | 0 | 0.0 | 0.0 | 0.00 | 0.00 | 0.00 | 75 | 950.0 |
| 20260906091905 | 15 | 0 | 0.0 | 3.2 | 0.00 | 0.00 | 0.00 | 74 | 950.0 |
| 20260906091427 | 15 | 0 | 0.0 | 4.8 | 0.00 | 0.00 | 0.00 | 73 | 950.0 |
| 20260906090904 | 16 | 0 | 3.2 | 4.8 | 0.00 | 0.00 | 0.00 | 72 | 950.0 |
| 20260906090412 | 16 | 0 | 0.0 | 4.8 | 0.00 | 0.00 | 0.00 | 71 | 950.0 |
| 20260906085905 | 16 | 22 | 4.8 | 8.0 | 0.00 | 0.00 | 0.00 | 71 | 950.0 |
| 20260906085404 | 17 | 338 | 0.0 | 8.0 | 0.00 | 0.00 | 0.00 | 72 | 950.0 |
| 20260906084904 | 17 | 315 | 0.0 | 8.0 | 0.00 | 0.00 | 0.00 | 72 | 950.0 |
| 20260906084405 | 17 | 22 | 0.0 | 9.7 | 0.00 | 0.00 | 0.00 | 72 | 950.0 |
| 20260906083921 | 17 | 0 | 3.2 | 9.7 | 0.00 | 0.00 | 0.00 | 73 | 950.0 |
| 20260906083406 | 17 | 22 | 0.0 | 9.7 | 0.00 | 0.00 | 0.00 | 73 | 950.0 |
| 20260906082916 | 17 | 22 | 3.2 | 3.2 | 0.00 | 0.00 | 0.00 | 74 | 950.0 |
| 20260906082406 | 16 | 22 | 0.0 | 1.6 | 0.00 | 0.00 | 0.00 | 74 | 950.0 |
| 20260906081905 | 16 | 22 | 0.0 | 1.6 | 0.00 | 0.00 | 0.00 | 74 | 950.0 |
| 20260906081431 | 16 | 22 | 0.0 | 0.0 | 0.00 | 0.00 | 0.00 | 74 | 950.0 |
| 20260906080906 | 16 | 22 | 0.0 | 0.0 | 0.00 | 0.00 | 0.00 | 73 | 950.0 |
| 20260906080424 | 16 | 22 | 0.0 | 0.0 | 0.00 | 0.00 | 0.00 | 72 | 950.0 |
| 20260906075906 | 16 | 22 | 0.0 | 0.0 | 0.00 | 0.00 | 0.00 | 71 | 950.0 |
| 20260906075407 | 17 | 22 | 0.0 | 6.4 | 0.00 | 0.00 | 0.00 | 70 | 950.0 |
| 20260906074906 | 17 | 22 | 0.0 | 6.4 | 0.00 | 0.00 | 0.00 | 70 | 950.0 |
| 20260906074406 | 17 | 22 | 0.0 | 6.4 | 0.00 | 0.00 | 0.00 | 70 | 950.0 |
| 20260906073905 | 17 | 0 | 0.0 | 4.8 | 0.00 | 0.00 | 0.00 | 70 | 950.0 |
| 20260906073406 | 17 | 0 | 0.0 | 4.8 | 0.00 | 0.00 | 0.00 | 71 | 950.0 |
| 20260906072919 | 17 | 0 | 4.8 | 4.8 | 0.00 | 0.00 | 0.00 | 72 | 950.0 |
| 20260906072417 | 17 | 0 | 0.0 | 0.0 | 0.00 | 0.00 | 0.00 | 72 | 950.0 |
| 20260906071914 | 18 | 0 | 0.0 | 0.0 | 0.00 | 0.00 | 0.00 | 72 | 950.0 |
| 20260906071407 | 18 | 0 | 0.0 | 0.0 | 0.00 | 0.00 | 0.00 | 73 | 950.0 |
| 20260906070906 | 18 | 0 | 0.0 | 3.2 | 0.00 | 0.00 | 0.00 | 74 | 950.0 |
| 20260906070431 | 18 | 0 | 0.0 | 3.2 | 0.00 | 0.00 | 0.00 | 75 | 950.0 |
| 20260906065930 | 18 | 0 | 3.2 | 3.2 | 0.00 | 0.00 | 0.00 | 76 | 950.0 |
| 20260906065424 | 18 | 0 | 0.0 | 0.0 | 0.00 | 0.00 | 0.00 | 77 | 950.0 |
| 20260906064906 | 17 | 0 | 0.0 | 0.0 | 0.00 | 0.00 | 0.00 | 77 | 949.0 |
| 20260906064409 | 17 | 0 | 0.0 | 0.0 | 0.00 | 0.00 | 0.00 | 78 | 949.0 |
| 20260906063907 | 17 | 0 | 0.0 | 0.0 | 0.00 | 0.00 | 0.00 | 79 | 949.0 |
| 20260906063442 | 17 | 0 | 0.0 | 0.0 | 0.00 | 0.00 | 0.00 | 80 | 949.0 |
| 20260906062907 | 17 | 0 | 0.0 | 0.0 | 0.00 | 0.00 | 0.00 | 80 | 949.0 |
| 20260906062407 | 17 | 0 | 0.0 | 0.0 | 0.00 | 0.00 | 0.00 | 81 | 949.0 |
| 20260906061921 | 16 | 0 | 0.0 | 0.0 | 0.00 | 0.00 | 0.00 | 82 | 949.0 |
| 20260906061407 | 16 | 0 | 0.0 | 0.0 | 0.00 | 0.00 | 0.00 | 82 | 949.0 |
| 20260906060952 | 16 | 0 | 0.0 | 0.0 | 0.00 | 0.00 | 0.00 | 83 | 949.0 |
| 20260906060407 | 16 | 0 | 0.0 | 0.0 | 0.00 | 0.00 | 0.00 | 84 | 949.0 |
| 20260906055908 | 16 | 0 | 0.0 | 0.0 | 0.00 | 0.00 | 0.00 | 84 | 949.0 |
| 20260906055432 | 16 | 0 | 0.0 | 0.0 | 0.00 | 0.00 | 0.00 | 84 | 949.0 |
| 20260906054906 | 15 | 0 | 0.0 | 0.0 | 0.00 | 24.97 | 0.00 | 85 | 949.0 |
| 20260906054505 | 15 | 0 | 0.0 | 0.0 | 0.00 | 0.00 | 0.00 | 85 | 949.0 |
| 20260906053908 | 15 | 0 | 0.0 | 0.0 | 0.00 | 0.00 | 0.00 | 85 | 949.0 |
| 20260906053410 | 15 | 0 | 0.0 | 0.0 | 0.00 | 0.00 | 0.00 | 85 | 949.0 |
| 20260906052908 | 14 | 0 | 0.0 | 0.0 | 0.00 | 0.00 | 0.00 | 86 | 949.0 |
| 20260906052408 | 14 | 0 | 0.0 | 0.0 | 0.00 | 0.00 | 0.00 | 86 | 949.0 |
| 20260906051907 | 14 | 0 | 0.0 | 0.0 | 0.00 | 0.00 | 0.00 | 86 | 949.0 |
| 20260906051408 | 14 | 0 | 0.0 | 0.0 | 0.00 | 0.00 | 0.00 | 86 | 949.0 |
| 20260906050920 | 14 | 0 | 0.0 | 0.0 | 0.00 | 0.00 | 0.00 | 86 | 949.0 |
| 20260906050409 | 14 | 0 | 0.0 | 0.0 | 0.00 | 0.00 | 0.00 | 86 | 949.0 |
| 20260906045907 | 14 | 0 | 0.0 | 0.0 | 0.00 | 0.00 | 0.00 | 86 | 949.0 |
| 20260906045409 | 13 | 0 | 0.0 | 0.0 | 0.00 | 0.00 | 0.00 | 87 | 949.0 |
| 20260906044908 | 13 | 0 | 0.0 | 0.0 | 0.00 | 0.00 | 0.00 | 87 | 949.0 |
| 20260906044430 | 13 | 0 | 0.0 | 0.0 | 0.00 | 0.00 | 0.00 | 87 | 949.0 |
| 20260906043908 | 13 | 0 | 0.0 | 0.0 | 0.00 | 0.00 | 0.00 | 87 | 949.0 |
| 20260906043414 | 13 | 0 | 0.0 | 0.0 | 0.00 | 0.00 | 0.00 | 87 | 949.0 |
| 20260906042909 | 13 | 0 | 0.0 | 0.0 | 0.00 | 0.00 | 0.00 | 87 | 949.0 |
| 20260906042409 | 13 | 0 | 0.0 | 0.0 | 0.00 | 0.00 | 0.00 | 87 | 949.0 |
| 20260906041909 | 13 | 0 | 0.0 | 0.0 | 0.00 | 0.00 | 0.00 | 87 | 949.0 |
| 20260906041410 | 12 | 0 | 0.0 | 0.0 | 0.00 | 0.00 | 0.00 | 87 | 949.0 |
| 20260906040926 | 12 | 0 | 0.0 | 0.0 | 0.00 | 0.00 | 0.00 | 87 | 949.0 |
| 20260906040408 | 12 | 0 | 0.0 | 0.0 | 0.00 | 0.00 | 0.00 | 87 | 949.0 |
| 20260906035919 | 12 | 0 | 0.0 | 0.0 | 0.00 | 0.00 | 0.00 | 87 | 949.0 |
| 20260906035408 | 12 | 0 | 0.0 | 0.0 | 0.00 | 0.00 | 0.00 | 87 | 949.0 |
| 20260906034909 | 12 | 0 | 0.0 | 0.0 | 0.00 | 0.00 | 0.00 | 87 | 949.0 |
| 20260906034436 | 12 | 0 | 0.0 | 0.0 | 0.00 | 0.00 | 0.00 | 87 | 949.0 |
| 20260906033909 | 12 | 0 | 0.0 | 0.0 | 0.00 | 0.00 | 0.00 | 87 | 948.0 |
| 20260906033430 | 12 | 0 | 0.0 | 0.0 | 0.00 | 0.00 | 0.00 | 87 | 948.0 |
| 20260906032909 | 12 | 0 | 0.0 | 0.0 | 0.00 | 0.00 | 0.00 | 87 | 948.0 |
| 20260906032413 | 12 | 0 | 0.0 | 0.0 | 0.00 | 0.00 | 0.00 | 87 | 949.0 |
| 20260906031909 | 12 | 0 | 0.0 | 1.6 | 0.00 | 0.00 | 0.00 | 87 | 948.0 |
| 20260906031410 | 11 | 0 | 0.0 | 1.6 | 0.00 | 0.00 | 0.00 | 87 | 949.0 |
| 20260906030909 | 12 | 0 | 0.0 | 1.6 | 0.00 | 0.00 | 0.00 | 87 | 949.0 |
| 20260906030409 | 12 | 0 | 0.0 | 0.0 | 0.00 | 0.00 | 0.00 | 87 | 948.0 |
| 20260906025927 | 12 | 0 | 0.0 | 0.0 | 0.00 | 0.00 | 0.00 | 87 | 948.0 |
| 20260906025411 | 12 | 0 | 0.0 | 0.0 | 0.00 | 0.00 | 0.00 | 87 | 948.0 |
| 20260906024922 | 12 | 0 | 0.0 | 0.0 | 0.00 | 0.00 | 0.00 | 87 | 948.0 |
| 20260906024411 | 12 | 0 | 0.0 | 0.0 | 0.00 | 0.00 | 0.00 | 86 | 948.0 |
| 20260906023911 | 12 | 0 | 0.0 | 0.0 | 0.00 | 0.00 | 0.00 | 86 | 948.0 |
| 20260906023410 | 12 | 0 | 0.0 | 0.0 | 0.00 | 0.00 | 0.00 | 86 | 948.0 |
| 20260906022910 | 12 | 0 | 0.0 | 0.0 | 0.00 | 0.00 | 0.00 | 86 | 948.0 |
| 20260906022431 | 12 | 0 | 0.0 | 0.0 | 0.00 | 0.00 | 0.00 | 86 | 948.0 |
| 20260906021910 | 12 | 0 | 0.0 | 0.0 | 0.00 | 0.00 | 0.00 | 86 | 948.0 |
| 20260906021415 | 12 | 0 | 0.0 | 0.0 | 0.00 | 0.00 | 0.00 | 86 | 948.0 |
| 20260906020911 | 12 | 0 | 0.0 | 0.0 | 0.00 | 0.00 | 0.00 | 86 | 948.0 |
| 20260906020411 | 12 | 0 | 0.0 | 0.0 | 0.00 | 0.00 | 0.00 | 86 | 948.0 |
| 20260906015911 | 12 | 0 | 0.0 | 0.0 | 0.00 | 0.00 | 0.00 | 86 | 948.0 |
| 20260906015411 | 12 | 0 | 0.0 | 0.0 | 0.00 | 0.00 | 0.00 | 86 | 948.0 |
| 20260906014927 | 12 | 0 | 0.0 | 0.0 | 0.00 | 0.00 | 0.00 | 85 | 948.0 |
| 20260906014412 | 12 | 0 | 0.0 | 0.0 | 0.00 | 0.00 | 0.00 | 85 | 948.0 |
| 20260906013912 | 12 | 0 | 0.0 | 0.0 | 0.00 | 0.00 | 0.00 | 85 | 948.0 |
| 20260906013411 | 12 | 0 | 0.0 | 0.0 | 0.00 | 0.00 | 0.00 | 85 | 948.0 |
| 20260906012911 | 12 | 0 | 0.0 | 0.0 | 0.00 | 0.00 | 0.00 | 85 | 948.0 |
| 20260906012439 | 12 | 0 | 0.0 | 0.0 | 0.00 | 0.00 | 0.00 | 85 | 948.0 |
| 20260906011912 | 12 | 0 | 0.0 | 0.0 | 0.00 | 0.00 | 0.00 | 85 | 948.0 |
| 20260906011423 | 12 | 0 | 0.0 | 0.0 | 0.00 | 0.00 | 0.00 | 85 | 948.0 |
| 20260906010911 | 12 | 0 | 0.0 | 0.0 | 0.00 | 0.00 | 0.00 | 85 | 948.0 |
| 20260906010419 | 12 | 0 | 0.0 | 0.0 | 0.00 | 0.00 | 0.00 | 85 | 948.0 |
| 20260906005912 | 12 | 0 | 0.0 | 0.0 | 0.00 | 0.00 | 0.00 | 85 | 948.0 |
| 20260906005411 | 12 | 0 | 0.0 | 0.0 | 0.00 | 0.00 | 0.00 | 85 | 947.0 |
| 20260906004936 | 12 | 0 | 0.0 | 0.0 | 0.00 | 0.00 | 0.00 | 85 | 948.0 |
| 20260906004412 | 12 | 0 | 0.0 | 0.0 | 0.00 | 0.00 | 0.00 | 85 | 948.0 |
| 20260906003930 | 12 | 0 | 0.0 | 0.0 | 0.00 | 0.00 | 0.00 | 85 | 948.0 |
| 20260906003413 | 12 | 0 | 0.0 | 0.0 | 0.00 | 0.00 | 0.00 | 85 | 948.0 |
| 20260906002915 | 12 | 0 | 0.0 | 0.0 | 0.00 | 0.00 | 0.00 | 85 | 948.0 |
| 20260906002413 | 12 | 0 | 0.0 | 0.0 | 0.00 | 0.00 | 0.00 | 85 | 948.0 |
| 20260906001913 | 12 | 0 | 0.0 | 0.0 | 0.00 | 0.00 | 0.00 | 85 | 948.0 |
| 20260906001412 | 12 | 0 | 0.0 | 0.0 | 0.00 | 0.00 | 0.00 | 85 | 948.0 |
| 20260906000912 | 12 | 0 | 0.0 | 0.0 | 0.00 | 0.00 | 0.00 | 85 | 948.0 |
| 20260906000426 | 12 | 0 | 0.0 | 0.0 | 0.00 | 0.00 | 0.00 | 85 | 948.0 |
| 20260905235913 | 13 | 0 | 0.0 | 0.0 | 0.00 | 0.00 | 0.00 | 85 | 948.0 |
| 20260905235419 | 13 | 0 | 0.0 | 0.0 | 0.00 | 0.00 | 0.00 | 85 | 948.0 |
| 20260905234913 | 13 | 0 | 0.0 | 0.0 | 0.00 | 0.00 | 0.00 | 85 | 948.0 |
| 20260905234412 | 13 | 0 | 0.0 | 0.0 | 0.00 | 0.00 | 0.00 | 84 | 948.0 |
| 20260905233936 | 13 | 0 | 0.0 | 0.0 | 0.00 | 0.00 | 0.00 | 84 | 948.0 |
| 20260905233414 | 13 | 0 | 0.0 | 0.0 | 0.00 | 0.00 | 0.00 | 84 | 948.0 |
| 20260905232932 | 13 | 0 | 0.0 | 0.0 | 0.00 | 0.00 | 0.00 | 84 | 948.0 |
| 20260905232414 | 13 | 0 | 0.0 | 0.0 | 0.00 | 0.00 | 0.00 | 84 | 948.0 |
| 20260905231916 | 13 | 0 | 0.0 | 0.0 | 0.00 | 0.00 | 0.00 | 84 | 948.0 |
| 20260905231414 | 13 | 0 | 0.0 | 0.0 | 0.00 | 0.00 | 0.00 | 84 | 948.0 |
| 20260905230913 | 13 | 0 | 0.0 | 0.0 | 0.00 | 0.00 | 0.00 | 84 | 948.0 |
| 20260905230413 | 13 | 0 | 0.0 | 0.0 | 0.00 | 0.00 | 0.00 | 84 | 948.0 |
| 20260905225913 | 13 | 0 | 0.0 | 0.0 | 0.00 | 0.00 | 0.00 | 84 | 948.0 |
| 20260905225428 | 13 | 0 | 0.0 | 0.0 | 0.00 | 0.00 | 0.00 | 84 | 948.0 |
| 20260905224912 | 13 | 0 | 0.0 | 0.0 | 0.00 | 0.00 | 0.00 | 84 | 948.0 |
| 20260905224413 | 13 | 0 | 0.0 | 0.0 | 0.00 | 0.00 | 0.00 | 84 | 948.0 |
| 20260905223914 | 13 | 0 | 0.0 | 0.0 | 0.00 | 0.00 | 0.00 | 84 | 948.0 |
| 20260905223413 | 13 | 0 | 0.0 | 0.0 | 0.00 | 0.00 | 0.00 | 84 | 948.0 |
| 20260905222937 | 13 | 0 | 0.0 | 0.0 | 0.00 | 0.00 | 0.00 | 84 | 948.0 |
| 20260905222414 | 13 | 0 | 0.0 | 0.0 | 0.00 | 0.00 | 0.00 | 84 | 948.0 |
| 20260905221921 | 13 | 0 | 0.0 | 0.0 | 0.00 | 0.00 | 0.00 | 84 | 948.0 |
| 20260905221413 | 13 | 0 | 0.0 | 0.0 | 0.00 | 0.00 | 0.00 | 84 | 948.0 |
| 20260905220914 | 13 | 0 | 0.0 | 0.0 | 0.00 | 0.00 | 0.00 | 84 | 948.0 |
| 20260905220413 | 13 | 0 | 0.0 | 0.0 | 0.00 | 0.00 | 0.00 | 84 | 948.0 |
| 20260905215914 | 13 | 0 | 0.0 | 0.0 | 0.00 | 0.00 | 0.00 | 84 | 948.0 |
| 20260905215432 | 13 | 0 | 0.0 | 0.0 | 0.00 | 0.00 | 0.00 | 83 | 948.0 |
| 20260905214915 | 13 | 0 | 0.0 | 0.0 | 0.00 | 0.00 | 0.00 | 83 | 948.0 |
| 20260905214426 | 14 | 0 | 0.0 | 0.0 | 0.00 | 0.00 | 0.00 | 83 | 948.0 |
| 20260905213915 | 14 | 0 | 0.0 | 0.0 | 0.00 | 0.00 | 0.00 | 83 | 948.0 |
| 20260905213415 | 14 | 0 | 0.0 | 0.0 | 0.00 | 0.00 | 0.00 | 83 | 948.0 |
| 20260905212944 | 14 | 0 | 0.0 | 0.0 | 0.00 | 0.00 | 0.00 | 83 | 948.0 |
| 20260905212415 | 14 | 0 | 0.0 | 0.0 | 0.00 | 0.00 | 0.00 | 83 | 948.0 |
| 20260905211936 | 14 | 0 | 0.0 | 0.0 | 0.00 | 0.00 | 0.00 | 83 | 948.0 |
| 20260905211415 | 14 | 0 | 0.0 | 0.0 | 0.00 | 0.00 | 0.00 | 83 | 948.0 |
| 20260905210921 | 14 | 0 | 0.0 | 0.0 | 0.00 | 0.00 | 0.00 | 83 | 948.0 |
| 20260905210418 | 15 | 0 | 0.0 | 0.0 | 0.00 | 0.00 | 0.00 | 83 | 948.0 |
| 20260905205915 | 15 | 0 | 0.0 | 0.0 | 0.00 | 0.00 | 0.00 | 83 | 948.0 |
| 20260905205415 | 15 | 0 | 0.0 | 0.0 | 0.00 | 0.00 | 0.00 | 83 | 948.0 |
| 20260905204916 | 15 | 0 | 0.0 | 0.0 | 0.00 | 0.00 | 0.00 | 83 | 948.0 |
| 20260905204433 | 15 | 0 | 0.0 | 3.2 | 0.00 | 0.00 | 0.00 | 83 | 948.0 |
| 20260905203932 | 15 | 0 | 0.0 | 3.2 | 0.00 | 0.00 | 0.00 | 83 | 948.0 |
| 20260905203428 | 15 | 0 | 0.0 | 3.2 | 0.00 | 0.00 | 0.00 | 83 | 948.0 |
| 20260905202916 | 15 | 0 | 0.0 | 0.0 | 0.00 | 0.00 | 0.00 | 83 | 948.0 |
| 20260905202415 | 15 | 0 | 0.0 | 0.0 | 0.00 | 0.00 | 0.00 | 83 | 948.0 |
| 20260905201916 | 15 | 0 | 0.0 | 0.0 | 0.00 | 0.00 | 0.00 | 83 | 948.0 |
| 20260905201444 | 15 | 0 | 0.0 | 0.0 | 0.00 | 0.00 | 0.00 | 83 | 947.0 |
| 20260905200939 | 15 | 0 | 0.0 | 0.0 | 0.00 | 0.00 | 0.00 | 83 | 947.0 |
| 20260905200416 | 15 | 0 | 0.0 | 0.0 | 0.00 | 0.00 | 0.00 | 83 | 947.0 |
| 20260905195923 | 15 | 0 | 0.0 | 0.0 | 0.00 | 0.00 | 0.00 | 83 | 947.0 |
| 20260905195417 | 15 | 0 | 0.0 | 0.0 | 0.00 | 0.00 | 0.00 | 83 | 947.0 |
| 20260905194956 | 15 | 0 | 0.0 | 0.0 | 0.00 | 0.00 | 0.00 | 82 | 947.0 |
| 20260905194417 | 15 | 0 | 0.0 | 0.0 | 0.00 | 0.00 | 0.00 | 82 | 947.0 |
| 20260905193916 | 15 | 0 | 0.0 | 0.0 | 0.00 | 0.00 | 0.00 | 82 | 947.0 |
| 20260905193433 | 15 | 0 | 0.0 | 0.0 | 0.00 | 0.00 | 0.00 | 82 | 947.0 |
| 20260905192917 | 15 | 0 | 0.0 | 0.0 | 0.00 | 0.00 | 0.00 | 82 | 947.0 |
| 20260905192506 | 15 | 0 | 0.0 | 0.0 | 0.00 | 0.00 | 0.00 | 82 | 947.0 |
| 20260905191918 | 15 | 0 | 0.0 | 0.0 | 0.00 | 0.00 | 0.00 | 82 | 947.0 |
| 20260905191418 | 15 | 0 | 0.0 | 0.0 | 0.00 | 0.00 | 0.00 | 82 | 947.0 |
| 20260905190945 | 15 | 0 | 0.0 | 0.0 | 0.00 | 0.00 | 0.00 | 82 | 947.0 |
| 20260905190417 | 15 | 0 | 0.0 | 0.0 | 0.00 | 0.00 | 0.00 | 82 | 947.0 |
| 20260905190017 | 15 | 0 | 0.0 | 0.0 | 0.00 | 0.00 | 0.00 | 82 | 948.0 |
| 20260905185417 | 15 | 0 | 0.0 | 0.0 | 0.00 | 0.00 | 0.00 | 82 | 947.0 |
| 20260905184922 | 15 | 0 | 0.0 | 0.0 | 0.00 | 0.00 | 0.00 | 82 | 948.0 |
| 20260905184417 | 15 | 0 | 0.0 | 3.2 | 0.00 | 0.00 | 0.00 | 82 | 948.0 |
| 20260905183917 | 15 | 0 | 0.0 | 3.2 | 0.00 | 0.00 | 0.00 | 81 | 948.0 |
| 20260905183417 | 15 | 0 | 3.2 | 3.2 | 0.00 | 0.00 | 0.00 | 81 | 948.0 |
| 20260905182916 | 15 | 0 | 0.0 | 0.0 | 0.00 | 0.00 | 0.00 | 81 | 947.0 |
| 20260905182435 | 15 | 0 | 0.0 | 0.0 | 0.00 | 0.00 | 0.00 | 81 | 947.0 |
| 20260905181917 | 15 | 0 | 0.0 | 0.0 | 0.00 | 0.00 | 0.00 | 80 | 947.0 |
| 20260905181419 | 15 | 0 | 0.0 | 0.0 | 0.00 | 0.00 | 0.00 | 80 | 947.0 |
| 20260905180918 | 15 | 0 | 0.0 | 0.0 | 0.00 | 0.00 | 0.00 | 80 | 947.0 |
| 20260905180416 | 15 | 0 | 0.0 | 0.0 | 0.00 | 0.00 | 0.00 | 80 | 947.0 |
| 20260905175918 | 15 | 0 | 0.0 | 0.0 | 0.00 | 0.00 | 0.00 | 79 | 947.0 |
| 20260905175416 | 15 | 0 | 0.0 | 0.0 | 0.00 | 0.00 | 0.00 | 79 | 947.0 |
| 20260905174932 | 15 | 0 | 0.0 | 0.0 | 0.00 | 0.00 | 0.00 | 79 | 947.0 |
| 20260905174417 | 15 | 0 | 0.0 | 0.0 | 0.00 | 0.00 | 0.00 | 79 | 947.0 |
| 20260905173929 | 15 | 0 | 0.0 | 0.0 | 0.00 | 0.00 | 0.00 | 78 | 946.0 |
| 20260905173417 | 15 | 0 | 0.0 | 0.0 | 0.00 | 0.00 | 0.00 | 78 | 946.0 |
| 20260905172917 | 15 | 0 | 0.0 | 0.0 | 0.00 | 0.00 | 0.00 | 78 | 946.0 |
| 20260905172416 | 15 | 0 | 0.0 | 0.0 | 0.00 | 0.00 | 0.00 | 78 | 946.0 |
| 20260905171917 | 15 | 0 | 0.0 | 0.0 | 0.00 | 0.00 | 0.00 | 78 | 946.0 |
| 20260905171440 | 15 | 0 | 0.0 | 0.0 | 0.00 | 0.00 | 0.00 | 78 | 946.0 |
| 20260905170917 | 15 | 0 | 0.0 | 0.0 | 0.00 | 0.00 | 0.00 | 78 | 946.0 |
| 20260905170424 | 16 | 0 | 0.0 | 0.0 | 0.00 | 0.00 | 0.00 | 78 | 946.0 |
| 20260905165917 | 16 | 0 | 0.0 | 0.0 | 0.00 | 0.00 | 0.00 | 78 | 946.0 |
| 20260905165419 | 16 | 0 | 0.0 | 0.0 | 0.00 | 0.00 | 0.00 | 78 | 946.0 |
| 20260905164917 | 16 | 0 | 0.0 | 0.0 | 0.00 | 0.00 | 0.00 | 77 | 946.0 |
| 20260905164418 | 16 | 0 | 0.0 | 0.0 | 0.00 | 0.00 | 0.00 | 77 | 946.0 |
| 20260905163938 | 16 | 0 | 0.0 | 0.0 | 0.00 | 0.00 | 0.00 | 77 | 946.0 |
| 20260905163418 | 16 | 0 | 0.0 | 0.0 | 0.00 | 0.00 | 0.00 | 77 | 946.0 |
| 20260905162933 | 16 | 0 | 0.0 | 1.6 | 0.00 | 0.00 | 0.00 | 77 | 946.0 |
| 20260905162418 | 17 | 0 | 0.0 | 3.2 | 0.00 | 0.00 | 0.00 | 77 | 946.0 |
| 20260905161916 | 17 | 0 | 0.0 | 3.2 | 0.00 | 0.00 | 0.00 | 76 | 946.0 |
| 20260905161417 | 17 | 0 | 3.2 | 3.2 | 0.00 | 0.00 | 0.00 | 76 | 946.0 |
| 20260905160916 | 17 | 0 | 0.0 | 0.0 | 0.00 | 0.00 | 0.00 | 75 | 946.0 |
| 20260905160445 | 17 | 0 | 0.0 | 0.0 | 0.00 | 0.00 | 0.00 | 75 | 946.0 |
| 20260905155916 | 17 | 0 | 0.0 | 0.0 | 0.00 | 0.00 | 0.00 | 75 | 946.0 |
| 20260905155430 | 17 | 0 | 0.0 | 0.0 | 0.00 | 0.00 | 0.00 | 75 | 946.0 |
| 20260905154918 | 17 | 0 | 0.0 | 0.0 | 0.00 | 0.00 | 0.00 | 75 | 946.0 |